Location: McFarlands Corners
(41.4117°N, 81.3382°W)
Time: 22:24:52
(UTC+00:00)

Vanguard 3 - Pass Details

Date: 21 November 2024
Orbit: 507 x 3221 km, 33.4° (Epoch: 05 December)

Event Time Altitude Azimuth Distance (km) Brightness Sun altitude
Rises 11:39:34 0° 169° (S) 6,228 12.1 -8.1°
Reaches altitude 10° 11:49:56 10° 137° (SE) 5,851 12.7 -6.3°
Maximum altitude 11:53:01 11° 127° (SE) 5,918 13.1 -5.7°
Drops below altitude 10° 11:56:12 10° 117° (ESE) 6,065 13.5 -5.2°
Sets 12:07:55 0° 87° (E) 7,137 13.3 -3.2°
